Regional Weather Roundup
Issued by NWS Charleston, SC

Current Version | Previous Version | Graphics & Text | Print | Product List | Glossary On
Versions: 1 2 3 4 5 6 7 8 9 10 11 12 13 14 15 16 17 18 19 20 21 22 23 24 25 26 27 28 29 30 31 32 33 34 35 36 37 38 39 40 41 42 43 44 45 46 47 48 49 50
000
ASUS42 KCHS 221227
RWRCHS

REGIONAL WEATHER ROUNDUP
NATIONAL WEATHER SERVICE CHARLESTON SC
800 AM EDT TUE AUG 22 2017

NOTE: "FAIR" INDICATES FEW OR NO CLOUDS BELOW 12,000 FEET WITH NO
SIGNIFICANT WEATHER AND/OR OBSTRUCTIONS TO VISIBILITY.

NOT ALL STATIONS ARE QUALITY CONTROLLED. USE DATA WITH CAUTION...
ESPECIALLY DEWPOINT OBSERVATIONS.

SCZ027-030-031-034>040-042>050-221300-
...SOUTHEAST SOUTH CAROLINA...

CITY           SKY/WX    TMP DP  RH WIND       PRES   REMARKS
N CHARLESTON   PTSUNNY   79  77  94 CALM      30.09S
6HR MIN TEMP:  74; 6HR MAX TEMP:  79; 6HR PCP:  0.01;

WATERFRONT PRK   N/A     79  77  94 VRB3      29.94R
JOHNS ISLAND   FAIR      84  77  79 CALM      30.10S HX  94
PINOPOLIS        N/A     77  75  94 VRB2      30.03S
MONCKS CORNER  FAIR      75  75 100 NE3       30.11R
SUMMERVILLE    NOT AVBL
BEAUFORT MCAS  MOSUNNY   77  77 100 NW3       30.11R
6HR MIN TEMP:  75; 6HR MAX TEMP:  77; 6HR PCP:  0.24;

BEAUFORT ARPT  FAIR      77  75  94 CALM      30.10S
HILTON HEAD IS MOSUNNY   77  77 100 CALM      30.11R
WALTERBORO     CLOUDY    73  73 100 CALM      30.12R FOG
ALLENDALE      NOT AVBL

...SOUTHERN MIDLANDS AND PEE DEE...

CITY           SKY/WX    TMP DP  RH WIND       PRES   REMARKS
GEORGETOWN     FAIR      77  77 100 CALM      30.12R
KINGSTREE      FOG       73  73 100 CALM      30.11S VSB 1/4
ORANGEBURG     SUNNY     75  71  87 CALM      30.12S
6HR MIN TEMP:  70; 6HR MAX TEMP:  75;

BARNWELL       FAIR      75  75 100 CALM      30.13R
AIKEN          FAIR      72  72 100 CALM      30.16R
MANNING        FAIR      73  68  83 CALM      30.12S
COLUMBIA       MOSUNNY   76  71  85 CALM      30.11S
6HR MIN TEMP:  73; 6HR MAX TEMP:  76;

SUMTER         SUNNY     75  71  89 CALM      30.10R
6HR MIN TEMP:  71; 6HR MAX TEMP:  75;

FLORENCE       CLOUDY    76  75  97 CALM      30.12S
6HR MIN TEMP:  74; 6HR MAX TEMP:  76;

MYRTLE BEACH   MOSUNNY   77  77 100 CALM      30.12R
N MYRTLE BEACH SUNNY     78  77  96 CALM      30.11S
6HR MIN TEMP:  75; 6HR MAX TEMP:  81; 6HR PCP:  0.13;


$$

GAZ063-065-086>088-099>101-113>116-118-119-134>141-150-221300-
...SOUTHEAST GEORGIA...

CITY           SKY/WX    TMP DP  RH WIND       PRES   REMARKS
SAVANNAH ARPT  MOSUNNY   77  75  93 CALM      30.11R
6HR MIN TEMP:  74; 6HR MAX TEMP:  77; 6HR PCP:  0.02;

HUNTER AAF     MOSUNNY   77  74  92 CALM      30.08S
6HR MIN TEMP:  75; 6HR MAX TEMP:  77;

FORT STEWART   PTSUNNY   75  73  94 CALM      30.10R FOG
6HR MIN TEMP:  73; 6HR MAX TEMP:  75;

STATESBORO     MOSUNNY   76  75  96 CALM      30.12R
SYLVANIA         N/A     74  74 100 CALM      30.13R
CLAXTON        FAIR      76  75  98 CALM      30.12R

...CSRA...CENTRAL AND FAR SOUTHEAST GEORGIA...

CITY           SKY/WX    TMP DP  RH WIND       PRES   REMARKS
THOMSON        CLOUDY    73  72  96 CALM      30.18R FOG
AUGUSTA-BUSH   FOG       74  73  97 CALM      30.11R VSB<1/4
6HR MIN TEMP:  73; 6HR MAX TEMP:  75;

AUGUSTA-DANIEL FOG       75  72  90 CALM      30.12S VSB<1/4
SWAINSBORO     FAIR      75  75 100 CALM      30.14R
VIDALIA        SUNNY     77  75  94 CALM      30.13R
EASTMAN        FAIR      74  73  96 CALM      30.15R
HAZLEHURST     FAIR      77  75  93 CALM      30.11R
ALMA           PTSUNNY   75  73  93 CALM      30.11R
6HR MIN TEMP:  72; 6HR MAX TEMP:  75;

WAYCROSS       CLOUDY    75  72  90 NE3       30.12R
JESUP          FAIR      75  73  94 CALM      30.11S
BAXLEY         FAIR      73  73 100 CALM      30.11S
BRUNSWICK      PTSUNNY   73  72  94 CALM      30.12R
SAINT SIMONS   SUNNY     77  76  96 CALM      30.10R
6HR MIN TEMP:  77; 6HR MAX TEMP:  78;


$$

SCZ027-028-034-036>038-045-046-048>050-GAZ119-141-221300-
...LAKE AND SUPPLEMENTAL COASTAL OBSERVATIONS...

STATION/POSITION TIME  TEMP    WIND        PRES    WAVE   SWELL
                       AIR SEA DIR/SP/G            HT/PER HT/PER/DIR
                 (UTC) (F)     (DEG/KT/KT) (MB)    (FT/S) (FT/S/D)
WINYAH BAY       1145   77     330/  1     1019.0S
LAKE MURRAY      1220   79      CALM  /  3 1018.6
ACE BASIN NERRS  1145   76        CALM     1019.0S
FORT PULASKI     1200   78 86  350/  2/  3 1019.9
SAPELO ISLAND    1200   77        CALM     1019.0

$$

ANZ835-935-AMZ111-154-330-350-352-354-370-450-454-472-221300-
...C-MAN AND BUOY OBSERVATIONS...

STATION/POSITION TIME  TEMP    WIND        PRES    WAVE   SWELL
                       AIR SEA DIR/SP/G            HT/PER HT/PER/DIR
                 (UTC) (F)     (DEG/KT/KT) (MB)    (FT/S) (FT/S/D)
BUOY 41004       1210   83 84  230/  2/  4 1018.8
BUOY 41008       1150   77 84  180/  8/ 10 1019.0R   3/ 8   3/130/ 8
FOLLY BEACH CMAN 1200   80     350/  4/  5 1019.7R
CAPERS NEARSHORE 1208   84 86  220/  8/ 12 1018.9R
FRIPP NEARSHORE  1208   81     270/  4/  6 1018.7R


STATION/POSITION TIME  TEMP    WIND        PRES    WAVE   SWELL
                       AIR SEA DIR/SP/G            HT/PER HT/PER/DIR
                 (UTC) (F)     (DEG/KT/KT) (MB)    (FT/S) (FT/S/D)
5E ST. MARYS GA  1200      83                N/A     3/10
FRYING PAN BUOY  1210   83 84  200/  6/  8 1019.2
BUOY 41025       1150   81 86  260/  2/  4 1020.0R   3/ 9   2/110/ 9
CAPE LOOKOUT NC  1200   82     150/  2/  3 1019.4F
BUOY 41002       1150   82 83  130/  4/  6 1020.3R   4/10   5/100/10
BUOY 41010       1210   84      90/ 16/ 19 1018.0
ST AUGUSTINE FL  1200   82 81  120/  8/  9 1019.3R


$$



USA.gov is the U.S. government's official web portal to all federal, state and local government web resources and services.